Weather History for KBXK - June, 2013

Change the Weather History Date:

Wednesday, June 19, 2013

  Actual Average (KGYR) Record (KGYR)
Temperature  
Mean Temperature 86 °F -  
Max Temperature 102 °F 101 °F 113 °F (2008)
Min Temperature 71 °F 72 °F 50 °F (2000)
Cooling Degree Days 22    
Growing Degree Days 36 (Base 50)    
Moisture  
Dew Point 23 °F    
Average Humidity 10    
Maximum Humidity 17    
Minimum Humidity 6    
Precipitation  
Precipitation 0.00 in - - ()
Sea Level Pressure  
Sea Level Pressure 29.70 in    
Wind  
Wind Speed 6 mph (SW)    
Max Wind Speed 15 mph    
Max Gust Speed 29 mph    
Visibility 10 miles    
Events      
Averages and records for this station are not official NWS values.
T = Trace of Precipitation, MM = Missing Value Source: NWS Daily Summary

Daily Weather History Graph

Daily Weather History Graph

Search for Another Location

Airport or City:

Trip Planner

Search our weather history database for the weather conditions in past years. The results will help you decide how hot, cold, wet, or windy it might be!

Date:

Astronomy

Jun. 19, 2013 Rise Set
Actual Time 5:21 AM MST 7:43 PM MST
Civil Twilight 4:52 AM MST 8:12 PM MST
Nautical Twilight 4:16 AM MST 8:47 PM MST
Astronomical Twilight 3:37 AM MST 9:26 PM MST
Moon 3:47 PM MST (6/19) 1:58 AM MST (6/19)
Length of Visible Light 15h 20m
Length of Day
14h 22m
Waxing Gibbous, 81% of the Moon is Illuminated
Jun 19
Waxing Gibbous
Jun 23
Full
Jun 29
Last Quarter
Jul 8
New
Jul 15
First Quarter

Hourly Weather History & Observations

Time (MST) Temp. Dew Point Humidity Pressure Visibility Wind Dir Wind Speed Gust Speed Precip Events Conditions
12:15 AM 80.6 °F 23.0 °F 12% 29.69 in 10.0 mi NW 4.6 mph - N/A   Clear
12:35 AM 77.0 °F 19.4 °F 12% 29.69 in 10.0 mi Calm Calm - N/A   Clear
12:55 AM 75.2 °F 17.6 °F 11% 29.69 in 7.0 mi WNW 3.5 mph - N/A   Clear
1:15 AM 78.8 °F 19.4 °F 11% 29.68 in 10.0 mi WNW 3.5 mph - N/A   Clear
1:35 AM 77.0 °F 19.4 °F 12% 29.68 in 9.0 mi WNW 4.6 mph - N/A   Clear
1:55 AM 77.0 °F 21.2 °F 12% 29.68 in 5.0 mi WNW 4.6 mph - N/A   Clear
2:15 AM 75.2 °F 19.4 °F 12% 29.68 in 9.0 mi West 6.9 mph - N/A   Clear
2:35 AM 73.4 °F 19.4 °F 13% 29.68 in 10.0 mi SW 10.4 mph - N/A   Clear
2:55 AM 75.2 °F 26.6 °F 17% 29.69 in 10.0 mi SW 11.5 mph - N/A   Clear
3:15 AM 75.2 °F 24.8 °F 15% 29.69 in 10.0 mi NE 5.8 mph - N/A   Clear
3:35 AM 73.4 °F 23.0 °F 15% 29.69 in 10.0 mi NE 5.8 mph - N/A   Clear
3:55 AM 73.4 °F 19.4 °F 13% 29.70 in 10.0 mi NE 3.5 mph - N/A   Clear
4:15 AM 71.6 °F 17.6 °F 13% 29.70 in 10.0 mi NNE 3.5 mph - N/A   Clear
4:35 AM 71.6 °F 17.6 °F 13% 29.70 in 10.0 mi NNE 5.8 mph - N/A   Clear
4:55 AM 71.6 °F 17.6 °F 13% 29.71 in 10.0 mi NE 4.6 mph - N/A   Clear
5:15 AM 71.6 °F 19.4 °F 14% 29.71 in 10.0 mi NE 6.9 mph - N/A   Clear
5:35 AM 71.6 °F 23.0 °F 16% 29.71 in 10.0 mi East 5.8 mph - N/A   Clear
5:55 AM 73.4 °F 23.0 °F 15% 29.72 in 10.0 mi ENE 8.1 mph - N/A   Clear
6:15 AM 75.2 °F 23.0 °F 14% 29.73 in 10.0 mi ENE 5.8 mph - N/A   Clear
6:35 AM 77.0 °F 24.8 °F 14% 29.73 in 9.0 mi East 4.6 mph - N/A   Clear
6:55 AM 80.6 °F 26.6 °F 14% 29.74 in 9.0 mi ENE 3.5 mph - N/A   Clear
7:15 AM 82.4 °F 26.6 °F 13% 29.75 in 10.0 mi ESE 3.5 mph - N/A   Clear
7:35 AM 84.2 °F 19.4 °F 9% 29.75 in 10.0 mi ESE 4.6 mph - N/A   Clear
7:55 AM 84.2 °F 23.0 °F 11% 29.76 in 10.0 mi ESE 5.8 mph - N/A   Clear
8:15 AM 86.0 °F 23.0 °F 10% 29.76 in 10.0 mi Calm Calm - N/A   Clear
8:35 AM 87.8 °F 23.0 °F 9% 29.77 in 10.0 mi Calm Calm - N/A   Clear
8:55 AM 87.8 °F 26.6 °F 11% 29.77 in 10.0 mi Calm Calm - N/A   Clear
9:15 AM 89.6 °F 23.0 °F 9% 29.77 in 10.0 mi Calm Calm - N/A   Clear
9:35 AM 89.6 °F 24.8 °F 10% 29.76 in 10.0 mi ESE 4.6 mph - N/A   Clear
9:55 AM 91.4 °F 28.4 °F 10% 29.76 in 9.0 mi SE 3.5 mph - N/A   Clear
10:15 AM 91.4 °F 28.4 °F 10% 29.76 in 10.0 mi South 5.8 mph - N/A   Clear
10:35 AM 93.2 °F 26.6 °F 9% 29.76 in 10.0 mi South 6.9 mph - N/A   Clear
10:55 AM 95.0 °F 28.4 °F 9% 29.76 in 10.0 mi SE 5.8 mph - N/A   Clear
11:15 AM 95.0 °F 26.6 °F 9% 29.75 in 10.0 mi SE 6.9 mph - N/A   Clear
11:35 AM 95.0 °F 26.6 °F 9% 29.75 in 9.0 mi SSW 5.8 mph - N/A   Clear
11:55 AM 96.8 °F 23.0 °F 7% 29.74 in 10.0 mi South 8.1 mph - N/A   Clear
12:15 PM 98.6 °F 24.8 °F 7% 29.73 in 10.0 mi SSE 9.2 mph - N/A   Clear
12:35 PM 98.6 °F 26.6 °F 8% 29.73 in 10.0 mi SSE 10.4 mph - N/A   Clear
12:55 PM 98.6 °F 26.6 °F 8% 29.72 in 10.0 mi ESE 8.1 mph - N/A   Clear
1:15 PM 100.4 °F 26.6 °F 7% 29.71 in 10.0 mi SSE 11.5 mph 16.1 mph N/A   Clear
1:35 PM 100.4 °F 24.8 °F 7% 29.71 in 10.0 mi South 3.5 mph - N/A   Clear
1:55 PM 100.4 °F 24.8 °F 7% 29.70 in 10.0 mi South 10.4 mph - N/A   Clear
2:15 PM 102.2 °F 24.8 °F 6% 29.69 in 10.0 mi SSE 10.4 mph 16.1 mph N/A   Clear
2:35 PM 102.2 °F 24.8 °F 6% 29.69 in 10.0 mi SSE 12.7 mph - N/A   Clear
2:55 PM 102.2 °F 23.0 °F 6% 29.68 in 10.0 mi SSW 10.4 mph - N/A   Clear
3:15 PM 102.2 °F 26.6 °F 7% 29.67 in 10.0 mi SW 6.9 mph 28.8 mph N/A   Clear
3:35 PM 102.2 °F 23.0 °F 6% 29.67 in 10.0 mi SSW 10.4 mph 18.4 mph N/A   Clear
3:55 PM 102.2 °F 23.0 °F 6% 29.66 in 10.0 mi SSW 11.5 mph 18.4 mph N/A   Clear
4:15 PM 102.2 °F 23.0 °F 6% 29.65 in 10.0 mi SW 12.7 mph 16.1 mph N/A   Clear
4:35 PM 102.2 °F 24.8 °F 6% 29.65 in 10.0 mi WSW 8.1 mph - N/A   Clear
4:55 PM 102.2 °F 23.0 °F 6% 29.65 in 10.0 mi WSW 11.5 mph 21.9 mph N/A   Clear
5:15 PM 102.2 °F 23.0 °F 6% 29.65 in 10.0 mi SW 6.9 mph 17.3 mph N/A   Clear
5:35 PM 102.2 °F 21.2 °F 6% 29.64 in 10.0 mi SW 9.2 mph - N/A   Clear
5:55 PM 102.2 °F 26.6 °F 7% 29.65 in 10.0 mi SW 15.0 mph 20.7 mph N/A   Clear
6:15 PM 100.4 °F 26.6 °F 7% 29.65 in 10.0 mi WSW 12.7 mph 16.1 mph N/A   Clear
6:35 PM 100.4 °F 21.2 °F 6% 29.65 in 10.0 mi West 8.1 mph - N/A   Clear
6:55 PM 98.6 °F 23.0 °F 7% 29.65 in 10.0 mi WSW 9.2 mph - N/A   Clear
7:15 PM 95.0 °F 24.8 °F 8% 29.65 in 10.0 mi West 8.1 mph - N/A   Clear
7:35 PM 93.2 °F 23.0 °F 8% 29.65 in 10.0 mi West 8.1 mph - N/A   Clear
7:55 PM 93.2 °F 19.4 °F 7% 29.65 in 10.0 mi West 9.2 mph - N/A   Clear
8:15 PM 91.4 °F 17.6 °F 7% 29.65 in 10.0 mi West 10.4 mph - N/A   Clear
8:35 PM 91.4 °F 19.4 °F 7% 29.66 in 10.0 mi West 9.2 mph - N/A   Clear
8:55 PM 89.6 °F 23.0 °F 9% 29.66 in 10.0 mi West 6.9 mph - N/A   Clear
9:15 PM 87.8 °F 19.4 °F 8% 29.67 in 10.0 mi West 6.9 mph - N/A   Clear
9:35 PM 86.0 °F 17.6 °F 8% 29.68 in 10.0 mi West 5.8 mph - N/A   Clear
9:55 PM 86.0 °F 17.6 °F 8% 29.68 in 10.0 mi West 4.6 mph - N/A   Clear
10:15 PM 84.2 °F 17.6 °F 8% 29.68 in 10.0 mi West 3.5 mph - N/A   Clear
10:35 PM 84.2 °F 17.6 °F 8% 29.68 in 10.0 mi Calm Calm - N/A   Clear
10:55 PM 84.2 °F 19.4 °F 9% 29.68 in 10.0 mi WSW 4.6 mph - N/A   Clear
11:15 PM 82.4 °F 19.4 °F 10% 29.69 in 10.0 mi West 3.5 mph - N/A   Clear
11:35 PM 80.6 °F 23.0 °F 12% 29.69 in 10.0 mi WSW 5.8 mph - N/A   Clear
11:55 PM 80.6 °F 19.4 °F 10% 29.68 in 10.0 mi WSW 9.2 mph - N/A   Clear